| time (UTC) | temp F | wind direction | speed MPH | gust MPH | rain 1hr in | rain 24hr in | rain mn in | humidity % | barometer mb |
| 20260905212036 | 46 | 305 | 4.0 | 5.0 | 0.00 | 0.00 | 0.00 | 89 | 1007.1 |
| 20260905211038 | 46 | 336 | 3.0 | 7.0 | 0.00 | 0.00 | 0.00 | 89 | 1007.0 |
| 20260905210036 | 46 | 316 | 4.0 | 8.0 | 0.00 | 0.00 | 0.00 | 89 | 1006.7 |
| 20260905205037 | 46 | 305 | 3.0 | 5.0 | 0.00 | 0.00 | 0.00 | 89 | 1006.5 |
| 20260905204037 | 47 | 322 | 3.0 | 5.0 | 0.00 | 0.00 | 0.00 | 90 | 1006.5 |
| 20260905203037 | 47 | 314 | 4.0 | 7.0 | 0.00 | 0.00 | 0.00 | 90 | 1006.3 |
| 20260905202034 | 47 | 285 | 4.0 | 6.0 | 0.00 | 0.00 | 0.00 | 90 | 1006.2 |
| 20260905201510 | 47 | 294 | 4.0 | 6.0 | 0.00 | 0.00 | 0.00 | 89 | 1006.1 |
| 20260905200035 | 47 | 283 | 4.0 | 6.0 | 0.00 | 0.00 | 0.00 | 87 | 1006.1 |
| 20260905195033 | 47 | 269 | 3.0 | 6.0 | 0.00 | 0.00 | 0.00 | 86 | 1006.0 |
| 20260905194030 | 48 | 280 | 3.0 | 4.0 | 0.00 | 0.00 | 0.00 | 85 | 1005.8 |
| 20260905193029 | 49 | 322 | 0.0 | 0.0 | 0.00 | 0.00 | 0.00 | 85 | 1005.8 |
| 20260905192030 | 49 | 322 | 0.0 | 0.0 | 0.00 | 0.00 | 0.00 | 85 | 1005.8 |
| 20260905191030 | 50 | 322 | 0.0 | 0.0 | 0.00 | 0.00 | 0.00 | 85 | 1005.7 |
| 20260905190031 | 51 | 323 | 0.0 | 2.0 | 0.00 | 0.00 | 0.00 | 85 | 1005.6 |
| 20260905185504 | 51 | 322 | 2.0 | 3.0 | 0.00 | 0.00 | 0.00 | 85 | 1005.5 |
| 20260905184502 | 52 | 322 | 1.0 | 3.0 | 0.00 | 0.00 | 0.00 | 84 | 1005.6 |
| 20260905183030 | 53 | 322 | 1.0 | 3.0 | 0.00 | 0.00 | 0.00 | 84 | 1005.3 |
| 20260905182030 | 54 | 322 | 1.0 | 3.0 | 0.00 | 0.00 | 0.00 | 83 | 1005.1 |
| 20260905181030 | 54 | 322 | 1.0 | 2.0 | 0.00 | 0.00 | 0.00 | 83 | 1004.8 |
| 20260905180510 | 55 | 322 | 1.0 | 3.0 | 0.00 | 0.00 | 0.00 | 83 | 1004.5 |
| 20260905175031 | 55 | 322 | 0.0 | 0.0 | 0.00 | 0.00 | 0.00 | 83 | 1004.4 |
| 20260905174029 | 56 | 322 | 1.0 | 2.0 | 0.00 | 0.00 | 0.00 | 84 | 1004.3 |
| 20260905173030 | 56 | 322 | 2.0 | 4.0 | 0.00 | 0.00 | 0.00 | 85 | 1004.1 |
| 20260905172030 | 56 | 291 | 1.0 | 2.0 | 0.00 | 0.00 | 0.00 | 84 | 1004.0 |
| 20260905171029 | 56 | 291 | 2.0 | 3.0 | 0.00 | 0.00 | 0.00 | 83 | 1003.8 |
| 20260905170030 | 57 | 291 | 3.0 | 5.0 | 0.00 | 0.00 | 0.00 | 78 | 1003.7 |
| 20260905165032 | 58 | 310 | 2.0 | 5.0 | 0.00 | 0.00 | 0.00 | 77 | 1003.7 |
| 20260905164030 | 57 | 316 | 1.0 | 3.0 | 0.00 | 0.00 | 0.00 | 78 | 1003.5 |
| 20260905163029 | 56 | 316 | 0.0 | 2.0 | 0.00 | 0.00 | 0.00 | 81 | 1003.4 |
| 20260905162509 | 56 | 316 | 0.0 | 2.0 | 0.00 | 0.00 | 0.00 | 80 | 1003.3 |
| 20260905161030 | 56 | 316 | 2.0 | 5.0 | 0.00 | 0.00 | 0.00 | 80 | 1003.2 |
| 20260905160029 | 56 | 262 | 3.0 | 5.0 | 0.00 | 0.00 | 0.00 | 76 | 1003.1 |
| 20260905155955 | 57 | 237 | 2.0 | 4.0 | 0.00 | 0.00 | 0.00 | 78 | 1002.9 |
| 20260905154029 | 58 | 258 | 3.0 | 4.0 | 0.00 | 0.00 | 0.00 | 74 | 1002.9 |
| 20260905153504 | 59 | 267 | 2.0 | 3.0 | 0.00 | 0.00 | 0.00 | 71 | 1002.8 |
| 20260905152029 | 60 | 257 | 2.0 | 5.0 | 0.00 | 0.00 | 0.00 | 65 | 1002.5 |
| 20260905151029 | 60 | 170 | 1.0 | 2.0 | 0.00 | 0.00 | 0.00 | 66 | 1002.4 |
| 20260905150031 | 61 | 170 | 1.0 | 3.0 | 0.00 | 0.00 | 0.00 | 58 | 1002.2 |
| 20260905145029 | 61 | 236 | 2.0 | 5.0 | 0.00 | 0.00 | 0.00 | 59 | 1002.1 |
| 20260905144029 | 61 | 210 | 1.0 | 5.0 | 0.00 | 0.00 | 0.00 | 61 | 1002.0 |
| 20260905143030 | 60 | 233 | 3.0 | 5.0 | 0.00 | 0.00 | 0.00 | 63 | 1001.9 |
| 20260905142029 | 61 | 272 | 3.0 | 5.0 | 0.00 | 0.00 | 0.00 | 61 | 1001.7 |
| 20260905141029 | 60 | 280 | 4.0 | 8.0 | 0.00 | 0.00 | 0.00 | 63 | 1001.7 |
| 20260905140029 | 61 | 248 | 4.0 | 8.0 | 0.00 | 0.00 | 0.00 | 60 | 1001.5 |
| 20260905135029 | 61 | 291 | 3.0 | 5.0 | 0.00 | 0.00 | 0.00 | 64 | 1001.4 |
| 20260905134029 | 60 | 272 | 4.0 | 8.0 | 0.00 | 0.00 | 0.00 | 62 | 1001.4 |
| 20260905133518 | 61 | 283 | 4.0 | 7.0 | 0.00 | 0.00 | 0.00 | 61 | 1001.3 |
| 20260905132030 | 60 | 277 | 3.0 | 7.0 | 0.00 | 0.00 | 0.00 | 65 | 1001.2 |
| 20260905131029 | 60 | 268 | 3.0 | 7.0 | 0.00 | 0.00 | 0.00 | 64 | 1001.2 |
| 20260905130028 | 59 | 292 | 4.0 | 8.0 | 0.00 | 0.00 | 0.00 | 65 | 1001.1 |
| 20260905125029 | 60 | 291 | 4.0 | 6.0 | 0.00 | 0.00 | 0.00 | 63 | 1001.0 |
| 20260905124512 | 60 | 270 | 3.0 | 5.0 | 0.00 | 0.00 | 0.00 | 65 | 1000.8 |
| 20260905123505 | 61 | 270 | 3.0 | 5.0 | 0.00 | 0.00 | 0.00 | 62 | 1000.9 |
| 20260905122028 | 61 | 343 | 2.0 | 5.0 | 0.00 | 0.00 | 0.00 | 62 | 1000.8 |
| 20260905121029 | 61 | 300 | 2.0 | 7.0 | 0.00 | 0.00 | 0.00 | 62 | 1000.8 |
| 20260905120029 | 61 | 324 | 4.0 | 8.0 | 0.00 | 0.00 | 0.00 | 60 | 1000.7 |
| 20260905115507 | 61 | 260 | 4.0 | 8.0 | 0.00 | 0.00 | 0.00 | 66 | 1000.6 |
| 20260905114028 | 61 | 300 | 4.0 | 8.0 | 0.00 | 0.00 | 0.00 | 63 | 1000.8 |
| 20260905113029 | 60 | 292 | 5.0 | 7.0 | 0.00 | 0.00 | 0.00 | 64 | 1000.6 |
| 20260905112030 | 59 | 291 | 4.0 | 8.0 | 0.00 | 0.00 | 0.00 | 67 | 1000.6 |
| 20260905111029 | 58 | 282 | 6.0 | 10.0 | 0.00 | 0.00 | 0.00 | 71 | 1000.5 |
| 20260905110029 | 58 | 229 | 7.0 | 12.0 | 0.00 | 0.00 | 0.00 | 69 | 1000.5 |
| 20260905105508 | 58 | 278 | 1.0 | 4.0 | 0.00 | 0.00 | 0.00 | 77 | 1000.4 |
| 20260905104029 | 57 | 310 | 1.0 | 2.0 | 0.00 | 0.00 | 0.00 | 77 | 1000.3 |
| 20260905103032 | 58 | 97 | 2.0 | 5.0 | 0.00 | 0.00 | 0.00 | 79 | 1000.3 |
| 20260905102507 | 58 | 300 | 3.0 | 7.0 | 0.00 | 0.00 | 0.00 | 70 | 1000.3 |
| 20260905101029 | 58 | 199 | 2.0 | 4.0 | 0.00 | 0.00 | 0.00 | 68 | 1000.1 |
| 20260905100029 | 59 | 226 | 2.0 | 5.0 | 0.00 | 0.00 | 0.00 | 72 | 1000.0 |
| 20260905095029 | 59 | 305 | 3.0 | 7.0 | 0.00 | 0.00 | 0.00 | 68 | 1000.0 |
| 20260905094512 | 60 | 111 | 1.0 | 4.0 | 0.00 | 0.00 | 0.00 | 68 | 999.9 |
| 20260905093029 | 59 | 168 | 1.0 | 4.0 | 0.00 | 0.00 | 0.00 | 70 | 999.9 |
| 20260905092029 | 58 | 132 | 2.0 | 4.0 | 0.00 | 0.00 | 0.00 | 73 | 999.7 |
| 20260905091029 | 58 | 156 | 1.0 | 3.0 | 0.00 | 0.00 | 0.00 | 74 | 999.7 |
| 20260905090029 | 57 | 212 | 1.0 | 4.0 | 0.00 | 0.00 | 0.00 | 72 | 999.6 |
| 20260905085030 | 57 | 71 | 0.0 | 2.0 | 0.00 | 0.00 | 0.00 | 76 | 999.6 |
| 20260905084029 | 56 | 71 | 0.0 | 2.0 | 0.00 | 0.00 | 0.00 | 80 | 999.5 |
| 20260905083030 | 55 | 71 | 0.0 | 1.0 | 0.00 | 0.00 | 0.00 | 82 | 999.4 |
| 20260905082030 | 55 | 71 | 1.0 | 2.0 | 0.00 | 0.00 | 0.00 | 83 | 999.4 |
| 20260905081029 | 55 | 71 | 0.0 | 2.0 | 0.00 | 0.00 | 0.00 | 84 | 999.4 |
| 20260905080030 | 54 | 71 | 1.0 | 2.0 | 0.00 | 0.00 | 0.00 | 84 | 999.3 |
| 20260905075029 | 54 | 99 | 2.0 | 5.0 | 0.00 | 0.00 | 0.00 | 83 | 999.2 |
| 20260905074951 | 54 | 347 | 2.0 | 5.0 | 0.00 | 0.00 | 0.00 | 79 | 999.2 |
| 20260905073029 | 53 | 31 | 2.0 | 4.0 | 0.00 | 0.00 | 0.00 | 82 | 999.1 |
| 20260905072504 | 52 | 351 | 1.0 | 3.0 | 0.00 | 0.00 | 0.00 | 85 | 999.0 |
| 20260905071029 | 51 | 14 | 2.0 | 4.0 | 0.00 | 0.00 | 0.00 | 85 | 999.0 |
| 20260905070504 | 50 | 305 | 0.0 | 4.0 | 0.00 | 0.00 | 0.00 | 87 | 998.9 |
| 20260905065029 | 49 | 310 | 0.0 | 0.0 | 0.00 | 0.00 | 0.00 | 89 | 998.9 |
| 20260905064029 | 48 | 353 | 0.0 | 3.0 | 0.00 | 0.00 | 0.00 | 90 | 998.9 |
| 20260905063030 | 47 | 334 | 2.0 | 4.0 | 0.00 | 0.00 | 0.00 | 91 | 998.8 |
| 20260905062028 | 47 | 356 | 2.0 | 3.0 | 0.00 | 0.00 | 0.00 | 92 | 998.7 |
| 20260905061029 | 46 | 317 | 2.0 | 3.0 | 0.00 | 0.00 | 0.00 | 92 | 998.7 |
| 20260905060029 | 45 | 320 | 1.0 | 4.0 | 0.00 | 0.00 | 0.00 | 92 | 998.6 |
| 20260905055029 | 45 | 310 | 2.0 | 3.0 | 0.00 | 0.00 | 0.00 | 92 | 998.5 |
| 20260905054031 | 45 | 287 | 3.0 | 7.0 | 0.00 | 0.00 | 0.00 | 92 | 998.4 |
| 20260905053029 | 44 | 291 | 4.0 | 9.0 | 0.00 | 0.00 | 0.00 | 92 | 998.3 |
| 20260905052029 | 44 | 300 | 5.0 | 8.0 | 0.00 | 0.00 | 0.00 | 92 | 998.2 |
| 20260905051959 | 44 | 310 | 4.0 | 8.0 | 0.00 | 0.00 | 0.00 | 91 | 998.2 |
| 20260905050511 | 44 | 272 | 4.0 | 6.0 | 0.00 | 0.00 | 0.00 | 91 | 998.2 |
| 20260905045029 | 44 | 305 | 3.0 | 8.0 | 0.00 | 0.00 | 0.00 | 91 | 998.2 |
| 20260905044028 | 45 | 300 | 3.0 | 4.0 | 0.00 | 0.00 | 0.00 | 91 | 998.1 |
| 20260905043516 | 45 | 305 | 3.0 | 4.0 | 0.00 | 0.00 | 0.00 | 91 | 998.1 |
| 20260905042031 | 45 | 300 | 2.0 | 4.0 | 0.00 | 0.00 | 0.00 | 91 | 998.1 |
| 20260905041029 | 45 | 320 | 2.0 | 4.0 | 0.00 | 0.00 | 0.00 | 91 | 998.0 |
| 20260905040030 | 45 | 319 | 2.0 | 5.0 | 0.00 | 0.00 | 0.00 | 91 | 998.1 |
| 20260905035029 | 45 | 322 | 2.0 | 4.0 | 0.00 | 0.00 | 0.00 | 91 | 997.9 |
| 20260905034029 | 45 | 310 | 4.0 | 7.0 | 0.00 | 0.00 | 0.00 | 91 | 997.8 |
| 20260905033959 | 45 | 342 | 4.0 | 9.0 | 0.00 | 0.00 | 0.00 | 91 | 997.7 |
| 20260905032028 | 45 | 326 | 3.0 | 5.0 | 0.00 | 0.00 | 0.00 | 91 | 997.6 |
| 20260905031029 | 46 | 316 | 3.0 | 5.0 | 0.00 | 0.00 | 0.00 | 90 | 997.5 |
| 20260905030029 | 46 | 316 | 4.0 | 8.0 | 0.00 | 0.00 | 0.00 | 91 | 997.4 |
| 20260905025029 | 46 | 322 | 3.0 | 5.0 | 0.00 | 0.00 | 0.00 | 90 | 997.5 |
| 20260905024029 | 46 | 292 | 3.0 | 4.0 | 0.00 | 0.00 | 0.00 | 90 | 997.4 |
| 20260905023028 | 46 | 289 | 3.0 | 4.0 | 0.00 | 0.00 | 0.00 | 90 | 997.3 |
| 20260905022509 | 46 | 305 | 3.0 | 5.0 | 0.00 | 0.00 | 0.00 | 90 | 997.3 |
| 20260905021509 | 46 | 264 | 4.0 | 5.0 | 0.00 | 0.00 | 0.00 | 91 | 997.2 |
| 20260905020029 | 46 | 295 | 4.0 | 5.0 | 0.00 | 0.00 | 0.00 | 90 | 997.2 |
| 20260905015029 | 46 | 300 | 3.0 | 5.0 | 0.00 | 0.00 | 0.00 | 90 | 997.2 |
| 20260905014029 | 47 | 296 | 2.0 | 4.0 | 0.00 | 0.00 | 0.00 | 90 | 997.0 |
| 20260905013029 | 47 | 305 | 3.0 | 4.0 | 0.00 | 0.00 | 0.00 | 90 | 996.9 |
| 20260905012029 | 47 | 314 | 3.0 | 5.0 | 0.00 | 0.00 | 0.00 | 90 | 996.9 |
| 20260905011029 | 47 | 294 | 3.0 | 4.0 | 0.00 | 0.00 | 0.00 | 90 | 996.9 |
| 20260905010030 | 47 | 310 | 2.0 | 3.0 | 0.00 | 0.00 | 0.00 | 90 | 996.9 |
| 20260905005030 | 47 | 305 | 3.0 | 5.0 | 0.00 | 0.00 | 0.00 | 89 | 996.8 |
| 20260905004029 | 47 | 305 | 2.0 | 4.0 | 0.00 | 0.00 | 0.00 | 89 | 996.9 |
| 20260905003029 | 47 | 310 | 1.0 | 3.0 | 0.00 | 0.00 | 0.00 | 89 | 996.7 |
| 20260905002030 | 48 | 310 | 2.0 | 3.0 | 0.00 | 0.00 | 0.00 | 89 | 996.7 |
| 20260905001511 | 48 | 300 | 2.0 | 4.0 | 0.00 | 0.00 | 0.00 | 89 | 996.8 |
| 20260905000029 | 48 | 319 | 1.0 | 2.0 | 0.00 | 0.00 | 0.00 | 89 | 996.7 |
| 20260904235029 | 48 | 319 | 3.0 | 4.0 | 0.00 | 0.00 | 0.00 | 89 | 996.7 |
| 20260904234029 | 48 | 337 | 3.0 | 3.0 | 0.00 | 0.00 | 0.00 | 89 | 996.7 |
| 20260904233029 | 48 | 321 | 2.0 | 4.0 | 0.00 | 0.00 | 0.00 | 89 | 996.6 |
| 20260904232029 | 49 | 335 | 2.0 | 4.0 | 0.00 | 0.00 | 0.00 | 89 | 996.6 |
| 20260904231030 | 49 | 310 | 2.0 | 3.0 | 0.00 | 0.00 | 0.00 | 89 | 996.6 |
| 20260904230028 | 49 | 310 | 2.0 | 4.0 | 0.00 | 0.00 | 0.00 | 89 | 996.6 |
| 20260904225029 | 49 | 300 | 3.0 | 5.0 | 0.00 | 0.00 | 0.00 | 89 | 996.6 |
| 20260904224507 | 49 | 291 | 2.0 | 4.0 | 0.00 | 0.00 | 0.00 | 88 | 996.6 |
| 20260904223029 | 49 | 322 | 2.0 | 4.0 | 0.00 | 0.00 | 0.00 | 88 | 996.7 |
| 20260904222029 | 49 | 21 | 1.0 | 4.0 | 0.00 | 0.00 | 0.00 | 87 | 996.7 |
| 20260904221515 | 50 | 324 | 1.0 | 3.0 | 0.00 | 0.00 | 0.00 | 87 | 996.7 |
| 20260904220030 | 50 | 283 | 0.0 | 1.0 | 0.00 | 0.00 | 0.00 | 87 | 996.7 |
| 20260904215028 | 50 | 283 | 0.0 | 2.0 | 0.00 | 0.00 | 0.00 | 87 | 996.7 |
| 20260904214029 | 50 | 283 | 3.0 | 4.0 | 0.00 | 0.00 | 0.00 | 87 | 996.6 |
| 20260904213027 | 51 | 276 | 3.0 | 4.0 | 0.00 | 0.00 | 0.00 | 87 | 996.5 |